TimeCDT,TemperatureF,Dew PointF,Humidity,Sea Level PressureIn,VisibilityMPH,Wind Direction,Wind SpeedMPH,Gust SpeedMPH,PrecipitationIn,Events,Conditions,WindDirDegrees,DateUTC
12:53 AM,82.0,70.0,67,29.93,10.0,South,9.2,-,N/A,,Clear,180,2013-06-27 05:53:00
1:53 AM,81.0,70.0,69,29.93,10.0,South,8.1,-,N/A,,Clear,180,2013-06-27 06:53:00
2:53 AM,80.1,70.0,71,29.94,10.0,South,9.2,-,N/A,,Clear,180,2013-06-27 07:53:00
3:53 AM,79.0,70.0,74,29.95,10.0,South,10.4,-,N/A,,Clear,190,2013-06-27 08:53:00
4:53 AM,78.1,70.0,76,29.96,10.0,South,9.2,-,N/A,,Clear,180,2013-06-27 09:53:00
5:53 AM,77.0,70.0,79,29.99,10.0,South,8.1,-,N/A,,Clear,180,2013-06-27 10:53:00
6:53 AM,77.0,71.1,82,30.01,10.0,South,10.4,-,N/A,,Clear,190,2013-06-27 11:53:00
7:53 AM,79.0,71.1,77,30.02,10.0,SW,10.4,-,N/A,,Partly Cloudy,220,2013-06-27 12:53:00
8:53 AM,79.0,71.1,77,30.04,10.0,SSW,13.8,-,N/A,,Partly Cloudy,210,2013-06-27 13:53:00
9:53 AM,82.9,71.1,67,30.03,10.0,SSW,11.5,-,N/A,,Clear,200,2013-06-27 14:53:00
10:53 AM,86.0,70.0,59,30.02,10.0,SSW,10.4,-,N/A,,Clear,200,2013-06-27 15:53:00
11:53 AM,89.1,71.1,55,30.01,10.0,Variable,6.9,-,N/A,,Clear,0,2013-06-27 16:53:00
12:53 PM,90.0,68.0,48,29.99,10.0,Variable,4.6,-,N/A,,Clear,0,2013-06-27 17:53:00
1:53 PM,93.9,68.0,43,29.97,10.0,SSW,5.8,-,N/A,,Clear,200,2013-06-27 18:53:00
2:28 PM,93.2,66.2,41,29.99,10.0,SW,8.1,-,N/A,,Partly Cloudy,230,2013-06-27 19:28:00
2:53 PM,95.0,66.0,38,29.96,10.0,West,4.6,-,N/A,,Clear,270,2013-06-27 19:53:00
3:53 PM,95.0,64.9,37,29.95,10.0,Calm,Calm,-,N/A,,Clear,0,2013-06-27 20:53:00
4:53 PM,97.0,62.1,31,29.93,10.0,Variable,3.5,-,N/A,,Clear,0,2013-06-27 21:53:00
5:53 PM,98.1,57.0,25,29.91,10.0,West,4.6,-,N/A,,Clear,260,2013-06-27 22:53:00
6:53 PM,96.1,63.0,33,29.91,10.0,SSW,5.8,-,N/A,,Clear,200,2013-06-27 23:53:00
7:53 PM,93.0,63.0,37,29.91,10.0,Calm,Calm,-,N/A,,Clear,0,2013-06-28 00:53:00
8:53 PM,87.1,66.9,51,29.88,10.0,SSE,5.8,-,N/A,,Clear,160,2013-06-28 01:53:00
9:53 PM,84.0,66.9,56,29.91,10.0,SE,5.8,-,N/A,,Clear,140,2013-06-28 02:53:00
10:53 PM,84.0,66.9,56,29.95,10.0,SSE,5.8,-,N/A,,Clear,160,2013-06-28 03:53:00
11:53 PM,81.0,66.9,62,29.95,10.0,South,6.9,-,N/A,,Clear,190,2013-06-28 04:53:00